Tracking 25934 objects as of 10-Aug-2022
HD Live streaming from Space Station
objects crossing your sky now

NINGXIA-1 2

Track NINGXIA-1 2 now!
10-day predictions


NORAD ID: 44780
Int'l Code: 2019-076B
Perigee: 889.0 km
Apogee: 900.9 km
Inclination: 45.0 °
Period: 102.7 minutes
Semi major axis: 7265 km
RCS: Unknown
Launch date: November 13, 2019
Source: People's Republic of China (PRC)
Launch site: Taiyaun Space Center, China (TSC)
aabbcc
Your satellite tracking list
Your tracking list is empty




NASA's NSSDC Master Catalog

Two Line Element Set (TLE):
1 44780U 19076B   22222.51047353 -.00000118  00000-0  77318-5 0  9996
2 44780  45.0119 344.3045 0008210 332.2768  27.7617 14.01730779140475
Source of the keplerian elements: AFSPC